Location: ????????
(55.3939°N, 37.4780°E)
Time: 06:15:06
(UTC+00:00)

Cosmos 1437 Rocket - Pass Details

Date: 14 April 2026
Orbit: 441 x 476 km, 81.2° (Epoch: 10 May)

Event Time Altitude Azimuth Distance (km) Brightness Sun altitude
Exits shadow 22:55:26 41° 84° (E) 658 3.4 -22.5°
Drops below altitude 10° 22:58:27 10° 26° (NNE) 1,581 6.3 -22.4°
Sets 23:00:35 0° 19° (NNE) 2,462 7.7 -22.2°
